Find Starlink 38157

NORAD ID: 100263 Int'l Des: 2026-181 Owner: SPXS Country: US Constellation: starlink operational

Current View

Loading 3D Globe...

About Starlink 38157

Starlink 38157 (NORAD 100263) is a starlink constellation satellite launched Aug 8, 2026 by SPXS of US. with a mass of 575.00 kg.

Upcoming Passes

Passes for default location (London). Set your location on the main map for personalized predictions.

Altitude History

Loading altitude history...

Two-Line Element Set

1 A0263U 26181T 26262.66613061 .00225357 00000-0 14685-2 0 9996
2 A0263 97.2833 306.2907 0001013 87.3980 272.7401 15.75248496 7834
Epoch: Sep 19, 2026 • Age: 23 hours

Current Status

Altitude 347.6 km
Apogee / Perigee N/A
Velocity 7.70 km/s
Sub-Earth Point 37.90°N, 76.89°E
Launch Date Aug 8, 2026
Age 0.1 years
Type internet

Technical Details

Classification Payload
Mass 575.00 kg
Dry Mass 530.00 kg
Length 0.30 m
Span 29.00 m
Shape ? Box + pan
Manufacturer SPXS
Bus Type Starlink V2MO
Phase Status In Orbit
Owner/State SPXS/US

Most Searched